Terminal Aerodrome Forecast
Issued by NWS Dodge City, KS

Home | Current Version | Previous Version | Text Only | Print | Product List | Glossary Off
Versions: 1 2 3 4 5 6 7 8 9 10 11 12 13 14 15 16 17 18 19

000
FTUS43 KDDC 140803 AAB
TAFDDC
TAF AMD
KDDC 140803Z 1408/1506 09006KT 5SM BR OVC250 WS020/19045KT
     FM141000 14006KT 4SM BR VCSH BKN025 WS020/21045KT
     FM141400 16009KT P6SM BKN080
     FM142000 27019G27KT P6SM FEW250
     FM142300 34025G33KT P6SM FEW250=

USA.gov is the U.S. government's official web portal to all federal, state and local government web resources and services.